| time (UTC) | temp C | wind direction | speed KPH | gust KPH | rain 1hr cm | rain 24hr cm | rain mn cm | humidity % | barometer mb |
| 20260509012029 | 13 | 64 | 0.0 | 0.0 | 0.00 | 0.03 | 0.03 | 77 | 1010.3 |
| 20260509011603 | 13 | 64 | 0.0 | 0.0 | 0.00 | 0.03 | 0.03 | 77 | 1010.3 |
| 20260509011032 | 13 | 64 | 0.0 | 0.0 | 0.00 | 0.03 | 0.03 | 76 | 1010.5 |
| 20260509010558 | 13 | 64 | 0.0 | 0.0 | 0.00 | 0.03 | 0.03 | 76 | 1010.5 |
| 20260509010033 | 13 | 64 | 0.0 | 1.6 | 0.00 | 0.03 | 0.03 | 74 | 1010.5 |
| 20260509005551 | 13 | 64 | 0.0 | 3.2 | 0.00 | 0.03 | 0.03 | 73 | 1010.5 |
| 20260509005026 | 13 | 66 | 0.0 | 3.2 | 0.00 | 0.03 | 0.03 | 75 | 1010.5 |
| 20260509004603 | 13 | 66 | 0.0 | 6.4 | 0.00 | 0.03 | 0.03 | 74 | 1010.3 |
| 20260509004009 | 13 | 65 | 0.0 | 6.4 | 0.00 | 0.03 | 0.03 | 73 | 1010.3 |
| 20260509003538 | 13 | 65 | 0.0 | 1.6 | 0.00 | 0.03 | 0.03 | 73 | 1010.3 |
| 20260509003017 | 13 | 65 | 0.0 | 1.6 | 0.00 | 0.03 | 0.03 | 73 | 1010.2 |
| 20260509002536 | 13 | 66 | 0.0 | 4.8 | 0.00 | 0.03 | 0.03 | 73 | 1010.2 |
| 20260509002002 | 13 | 66 | 0.0 | 4.8 | 0.00 | 0.03 | 0.03 | 73 | 1010.2 |
| 20260509001529 | 14 | 66 | 0.0 | 0.0 | 0.00 | 0.03 | 0.03 | 74 | 1010.2 |
| 20260509001056 | 14 | 67 | 0.0 | 0.0 | 0.00 | 0.03 | 0.03 | 74 | 1010.2 |
| 20260509000518 | 14 | 67 | 0.0 | 1.6 | 0.00 | 0.03 | 0.03 | 73 | 1010.2 |
| 20260509000052 | 14 | 67 | 0.0 | 0.0 | 0.00 | 0.03 | 0.03 | 72 | 1010.1 |
| 20260508235521 | 14 | 67 | 0.0 | 0.0 | 0.00 | 0.03 | 0.03 | 71 | 1010.1 |
| 20260508235050 | 15 | 67 | 0.0 | 4.8 | 0.00 | 0.03 | 0.03 | 72 | 1010.1 |
| 20260508234515 | 15 | 67 | 0.0 | 8.0 | 0.00 | 0.03 | 0.03 | 70 | 1010.1 |
| 20260508234036 | 15 | 67 | 0.0 | 4.8 | 0.00 | 0.03 | 0.03 | 70 | 1010.1 |
| 20260508233559 | 15 | 55 | 0.0 | 1.6 | 0.00 | 0.03 | 0.03 | 69 | 1010.1 |
| 20260508233029 | 15 | 58 | 0.0 | 0.0 | 0.00 | 0.03 | 0.03 | 70 | 1010.2 |
| 20260508232556 | 15 | 58 | 0.0 | 0.0 | 0.00 | 0.03 | 0.03 | 67 | 1010.2 |
| 20260508232023 | 15 | 58 | 0.0 | 0.0 | 0.00 | 0.03 | 0.03 | 67 | 1010.2 |
| 20260508231554 | 15 | 60 | 0.0 | 1.6 | 0.00 | 0.03 | 0.03 | 67 | 1010.2 |
| 20260508231015 | 15 | 60 | 0.0 | 1.6 | 0.00 | 0.03 | 0.03 | 67 | 1010.2 |
| 20260508230536 | 15 | 60 | 0.0 | 4.8 | 0.00 | 0.03 | 0.03 | 70 | 1010.2 |
| 20260508230008 | 15 | 60 | 0.0 | 4.8 | 0.00 | 0.03 | 0.03 | 65 | 1010.1 |
| 20260508225539 | 15 | 66 | 0.0 | 3.2 | 0.00 | 0.03 | 0.03 | 67 | 1010.1 |
| 20260508225003 | 15 | 81 | 0.0 | 8.0 | 0.00 | 0.03 | 0.03 | 66 | 1010.1 |
| 20260508224537 | 15 | 81 | 0.0 | 8.0 | 0.00 | 0.03 | 0.03 | 65 | 1010.2 |
| 20260508224059 | 16 | 83 | 0.0 | 0.0 | 0.00 | 0.03 | 0.03 | 68 | 1010.2 |
| 20260508224000 | 16 | 83 | 0.0 | 0.0 | 0.00 | 0.03 | 0.03 | 67 | 1010.2 |
| 20260508223535 | 16 | 83 | 0.0 | 1.6 | 0.00 | 0.03 | 0.03 | 69 | 1010.2 |
| 20260508223100 | 16 | 83 | 0.0 | 1.6 | 0.00 | 0.03 | 0.03 | 66 | 1010.2 |
| 20260508222520 | 16 | 83 | 0.0 | 3.2 | 0.00 | 0.03 | 0.03 | 69 | 1010.2 |
| 20260508222040 | 16 | 83 | 0.0 | 8.0 | 0.00 | 0.03 | 0.03 | 65 | 1010.2 |
| 20260508221509 | 16 | 84 | 0.0 | 4.8 | 0.00 | 0.03 | 0.03 | 67 | 1010.1 |
| 20260508221039 | 16 | 86 | 0.0 | 11.3 | 0.00 | 0.03 | 0.03 | 68 | 1010.1 |
| 20260508220505 | 16 | 86 | 0.0 | 11.3 | 0.00 | 0.03 | 0.03 | 64 | 1010.1 |
| 20260508220034 | 16 | 36 | 0.0 | 12.9 | 0.00 | 0.03 | 0.03 | 65 | 1010.1 |
| 20260508215600 | 16 | 292 | 0.0 | 12.9 | 0.00 | 0.03 | 0.03 | 64 | 1010.1 |
| 20260508215033 | 16 | 66 | 1.6 | 8.0 | 0.00 | 0.03 | 0.03 | 66 | 1010.1 |
| 20260508214607 | 16 | 126 | 0.0 | 6.4 | 0.00 | 0.03 | 0.03 | 65 | 1010.1 |
| 20260508214022 | 16 | 130 | 0.0 | 8.0 | 0.00 | 0.03 | 0.03 | 63 | 1010.1 |
| 20260508213550 | 16 | 142 | 0.0 | 8.0 | 0.00 | 0.03 | 0.03 | 63 | 1010.1 |
| 20260508213031 | 16 | 328 | 0.0 | 4.8 | 0.00 | 0.03 | 0.03 | 65 | 1010.1 |
| 20260508212553 | 16 | 328 | 0.0 | 4.8 | 0.00 | 0.03 | 0.03 | 63 | 1010.1 |
| 20260508212033 | 16 | 319 | 0.0 | 14.5 | 0.00 | 0.03 | 0.03 | 63 | 1010.1 |
| 20260508211551 | 16 | 289 | 1.6 | 22.5 | 0.00 | 0.03 | 0.03 | 62 | 1010.1 |
| 20260508211100 | 16 | 288 | 0.0 | 22.5 | 0.00 | 0.03 | 0.03 | 65 | 1010.1 |
| 20260508210525 | 16 | 84 | 0.0 | 9.7 | 0.00 | 0.03 | 0.03 | 63 | 1010.1 |
| 20260508210047 | 16 | 35 | 0.0 | 11.3 | 0.00 | 0.03 | 0.03 | 63 | 1010.2 |
| 20260508205510 | 16 | 268 | 0.0 | 9.7 | 0.00 | 0.03 | 0.03 | 62 | 1010.2 |
| 20260508205042 | 16 | 50 | 1.6 | 9.7 | 0.00 | 0.03 | 0.03 | 61 | 1010.2 |
| 20260508204520 | 16 | 336 | 0.0 | 9.7 | 0.00 | 0.03 | 0.03 | 61 | 1010.2 |
| 20260508204044 | 16 | 66 | 0.0 | 9.7 | 0.00 | 0.03 | 0.03 | 60 | 1010.2 |
| 20260508203518 | 16 | 350 | 0.0 | 24.1 | 0.00 | 0.03 | 0.03 | 61 | 1010.2 |
| 20260508203047 | 16 | 62 | 3.2 | 24.1 | 0.00 | 0.03 | 0.03 | 59 | 1010.4 |
| 20260508202522 | 16 | 46 | 0.0 | 12.9 | 0.00 | 0.03 | 0.03 | 61 | 1010.4 |
| 20260508202039 | 17 | 5 | 0.0 | 12.9 | 0.00 | 0.03 | 0.03 | 59 | 1010.4 |
| 20260508201601 | 17 | 306 | 0.0 | 9.7 | 0.00 | 0.03 | 0.03 | 60 | 1010.4 |
| 20260508201501 | 17 | 311 | 0.0 | 11.3 | 0.00 | 0.03 | 0.03 | 60 | 1010.4 |
| 20260508201033 | 17 | 311 | 0.0 | 11.3 | 0.00 | 0.03 | 0.03 | 60 | 1010.4 |
| 20260508200600 | 17 | 320 | 1.6 | 11.3 | 0.00 | 0.03 | 0.03 | 57 | 1010.4 |
| 20260508200032 | 17 | 307 | 0.0 | 11.3 | 0.00 | 0.03 | 0.03 | 57 | 1010.7 |
| 20260508195558 | 17 | 146 | 1.6 | 11.3 | 0.00 | 0.03 | 0.03 | 57 | 1010.7 |
| 20260508195502 | 17 | 294 | 1.6 | 11.3 | 0.00 | 0.03 | 0.03 | 58 | 1010.7 |
| 20260508195030 | 17 | 13 | 0.0 | 16.1 | 0.00 | 0.03 | 0.03 | 56 | 1010.7 |
| 20260508194559 | 17 | 11 | 0.0 | 16.1 | 0.00 | 0.03 | 0.03 | 58 | 1011.0 |
| 20260508194020 | 17 | 59 | 1.6 | 14.5 | 0.00 | 0.03 | 0.03 | 56 | 1011.0 |
| 20260508193548 | 17 | 266 | 0.0 | 14.5 | 0.00 | 0.03 | 0.03 | 57 | 1011.0 |
| 20260508193023 | 17 | 173 | 0.0 | 14.5 | 0.00 | 0.03 | 0.03 | 55 | 1011.3 |
| 20260508192546 | 17 | 360 | 0.0 | 9.7 | 0.00 | 0.03 | 0.03 | 57 | 1011.3 |
| 20260508192017 | 17 | 269 | 1.6 | 9.7 | 0.00 | 0.03 | 0.03 | 56 | 1011.3 |
| 20260508191546 | 17 | 20 | 0.0 | 6.4 | 0.00 | 0.03 | 0.03 | 56 | 1011.3 |
| 20260508191020 | 17 | 325 | 0.0 | 11.3 | 0.00 | 0.03 | 0.03 | 54 | 1011.3 |
| 20260508190544 | 17 | 82 | 0.0 | 11.3 | 0.00 | 0.03 | 0.03 | 55 | 1011.3 |
| 20260508190006 | 17 | 69 | 0.0 | 6.4 | 0.00 | 0.03 | 0.03 | 56 | 1011.7 |
| 20260508185537 | 17 | 75 | 0.0 | 8.0 | 0.00 | 0.03 | 0.03 | 58 | 1011.7 |
| 20260508185100 | 17 | 75 | 0.0 | 12.9 | 0.00 | 0.03 | 0.03 | 56 | 1011.7 |
| 20260508184534 | 17 | 99 | 1.6 | 11.3 | 0.00 | 0.03 | 0.03 | 57 | 1011.8 |
| 20260508184102 | 17 | 113 | 1.6 | 9.7 | 0.00 | 0.03 | 0.03 | 57 | 1011.8 |
| 20260508183536 | 17 | 315 | 0.0 | 11.3 | 0.00 | 0.03 | 0.03 | 56 | 1011.8 |
| 20260508183050 | 17 | 102 | 0.0 | 16.1 | 0.00 | 0.03 | 0.03 | 58 | 1012.0 |
| 20260508182514 | 17 | 355 | 0.0 | 16.1 | 0.00 | 0.03 | 0.03 | 59 | 1012.0 |
| 20260508182044 | 17 | 154 | 0.0 | 8.0 | 0.00 | 0.03 | 0.03 | 55 | 1012.0 |
| 20260508181517 | 17 | 101 | 1.6 | 14.5 | 0.00 | 0.03 | 0.03 | 54 | 1012.3 |
| 20260508181048 | 17 | 69 | 0.0 | 9.7 | 0.00 | 0.03 | 0.03 | 55 | 1012.3 |
| 20260508180520 | 17 | 63 | 0.0 | 12.9 | 0.00 | 0.03 | 0.03 | 56 | 1012.3 |
| 20260508180052 | 17 | 65 | 0.0 | 12.9 | 0.00 | 0.03 | 0.03 | 58 | 1012.3 |
| 20260508175522 | 17 | 285 | 1.6 | 12.9 | 0.00 | 0.03 | 0.03 | 57 | 1012.3 |
| 20260508175053 | 16 | 22 | 0.0 | 12.9 | 0.00 | 0.03 | 0.03 | 58 | 1012.3 |
| 20260508174519 | 16 | 219 | 0.0 | 12.9 | 0.00 | 0.03 | 0.03 | 61 | 1012.6 |
| 20260508174040 | 16 | 304 | 0.0 | 9.7 | 0.00 | 0.03 | 0.03 | 59 | 1012.6 |
| 20260508173504 | 16 | 186 | 0.0 | 11.3 | 0.00 | 0.03 | 0.03 | 55 | 1012.6 |
| 20260508173037 | 16 | 117 | 1.6 | 11.3 | 0.00 | 0.03 | 0.03 | 56 | 1012.5 |
| 20260508172503 | 16 | 69 | 0.0 | 9.7 | 0.00 | 0.03 | 0.03 | 58 | 1012.5 |
| 20260508172031 | 16 | 209 | 0.0 | 14.5 | 0.00 | 0.03 | 0.03 | 58 | 1012.5 |
| 20260508171555 | 16 | 310 | 0.0 | 14.5 | 0.00 | 0.03 | 0.03 | 57 | 1012.5 |
| 20260508171024 | 16 | 309 | 0.0 | 8.0 | 0.00 | 0.03 | 0.03 | 62 | 1012.9 |
| 20260508170550 | 16 | 304 | 1.6 | 8.0 | 0.00 | 0.03 | 0.03 | 59 | 1012.9 |
| 20260508170020 | 16 | 294 | 0.0 | 9.7 | 0.00 | 0.03 | 0.03 | 60 | 1013.0 |
| 20260508165555 | 16 | 295 | 0.0 | 8.0 | 0.00 | 0.03 | 0.03 | 62 | 1013.0 |
| 20260508165022 | 15 | 292 | 0.0 | 8.0 | 0.00 | 0.03 | 0.03 | 61 | 1013.0 |
| 20260508164554 | 15 | 287 | 0.0 | 6.4 | 0.00 | 0.03 | 0.03 | 61 | 1013.0 |
| 20260508164018 | 15 | 340 | 1.6 | 6.4 | 0.00 | 0.03 | 0.03 | 64 | 1013.4 |
| 20260508163553 | 15 | 350 | 0.0 | 6.4 | 0.00 | 0.03 | 0.03 | 64 | 1013.4 |
| 20260508163020 | 15 | 285 | 0.0 | 11.3 | 0.00 | 0.03 | 0.03 | 63 | 1013.4 |
| 20260508162548 | 15 | 288 | 0.0 | 11.3 | 0.00 | 0.03 | 0.03 | 64 | 1013.4 |
| 20260508162018 | 15 | 107 | 0.0 | 12.9 | 0.00 | 0.03 | 0.03 | 63 | 1013.4 |
| 20260508161542 | 15 | 108 | 0.0 | 12.9 | 0.00 | 0.03 | 0.03 | 59 | 1013.5 |
| 20260508161004 | 16 | 336 | 0.0 | 8.0 | 0.00 | 0.03 | 0.03 | 59 | 1013.5 |
| 20260508160538 | 16 | 139 | 0.0 | 8.0 | 0.00 | 0.03 | 0.03 | 64 | 1013.5 |
| 20260508160128 | 16 | 42 | 0.0 | 6.4 | 0.00 | 0.03 | 0.03 | 61 | 1013.5 |
| 20260508155532 | 15 | 42 | 1.6 | 9.7 | 0.00 | 0.03 | 0.03 | 59 | 1013.4 |
| 20260508155053 | 16 | 49 | 1.6 | 11.3 | 0.00 | 0.03 | 0.03 | 61 | 1013.4 |
| 20260508154514 | 15 | 341 | 0.0 | 4.8 | 0.00 | 0.03 | 0.03 | 60 | 1013.6 |
| 20260508154041 | 15 | 355 | 0.0 | 3.2 | 0.00 | 0.03 | 0.03 | 59 | 1013.6 |
| 20260508153510 | 15 | 13 | 0.0 | 3.2 | 0.00 | 0.03 | 0.03 | 61 | 1013.6 |
| 20260508153046 | 15 | 13 | 0.0 | 3.2 | 0.00 | 0.03 | 0.03 | 61 | 1013.8 |
| 20260508152509 | 15 | 16 | 0.0 | 0.0 | 0.00 | 0.03 | 0.03 | 60 | 1013.8 |
| 20260508152035 | 15 | 16 | 0.0 | 0.0 | 0.00 | 0.03 | 0.03 | 59 | 1013.8 |
| 20260508151600 | 16 | 16 | 0.0 | 4.8 | 0.00 | 0.03 | 0.03 | 60 | 1013.8 |
| 20260508151030 | 16 | 15 | 0.0 | 9.7 | 0.00 | 0.03 | 0.03 | 64 | 1013.8 |
| 20260508150555 | 16 | 15 | 0.0 | 9.7 | 0.00 | 0.03 | 0.03 | 59 | 1013.8 |
| 20260508150034 | 16 | 355 | 0.0 | 1.6 | 0.00 | 0.03 | 0.03 | 57 | 1013.6 |
| 20260508145553 | 16 | 355 | 0.0 | 0.0 | 0.00 | 0.03 | 0.03 | 64 | 1013.6 |
| 20260508145031 | 16 | 355 | 0.0 | 0.0 | 0.00 | 0.03 | 0.03 | 63 | 1013.6 |
| 20260508144556 | 15 | 355 | 0.0 | 0.0 | 0.00 | 0.03 | 0.03 | 61 | 1013.6 |
| 20260508144029 | 15 | 355 | 0.0 | 0.0 | 0.00 | 0.03 | 0.03 | 60 | 1013.8 |
| 20260508143550 | 15 | 355 | 0.0 | 0.0 | 0.00 | 0.03 | 0.03 | 61 | 1013.8 |
| 20260508143024 | 15 | 355 | 0.0 | 3.2 | 0.00 | 0.03 | 0.03 | 64 | 1013.9 |
| 20260508142545 | 15 | 355 | 0.0 | 3.2 | 0.00 | 0.03 | 0.03 | 59 | 1013.9 |
| 20260508142023 | 15 | 355 | 0.0 | 1.6 | 0.00 | 0.03 | 0.03 | 64 | 1013.9 |
| 20260508141554 | 14 | 355 | 0.0 | 1.6 | 0.00 | 0.03 | 0.03 | 69 | 1014.0 |
| 20260508141015 | 14 | 355 | 0.0 | 0.0 | 0.00 | 0.03 | 0.03 | 73 | 1014.0 |
| 20260508140543 | 14 | 355 | 0.0 | 0.0 | 0.00 | 0.03 | 0.03 | 63 | 1014.0 |
| 20260508140025 | 13 | 355 | 0.0 | 0.0 | 0.00 | 0.05 | 0.03 | 68 | 1014.1 |
| 20260508135549 | 13 | 355 | 0.0 | 0.0 | 0.00 | 0.05 | 0.03 | 75 | 1014.1 |
| 20260508135014 | 13 | 355 | 0.0 | 0.0 | 0.00 | 0.05 | 0.03 | 76 | 1014.1 |
| 20260508134544 | 13 | 355 | 0.0 | 0.0 | 0.00 | 0.05 | 0.03 | 69 | 1014.4 |
| 20260508134008 | 12 | 355 | 0.0 | 0.0 | 0.00 | 0.05 | 0.03 | 78 | 1014.4 |
| 20260508133537 | 12 | 355 | 0.0 | 0.0 | 0.00 | 0.05 | 0.03 | 79 | 1014.4 |
| 20260508133014 | 12 | 355 | 0.0 | 0.0 | 0.00 | 0.05 | 0.03 | 81 | 1014.1 |
| 20260508132535 | 11 | 355 | 0.0 | 0.0 | 0.00 | 0.05 | 0.03 | 81 | 1014.1 |
| 20260508132003 | 11 | 355 | 0.0 | 0.0 | 0.00 | 0.05 | 0.03 | 78 | 1014.1 |
| 20260508131532 | 11 | 355 | 0.0 | 0.0 | 0.00 | 0.05 | 0.03 | 78 | 1014.1 |
| 20260508131100 | 11 | 355 | 0.0 | 0.0 | 0.00 | 0.05 | 0.03 | 80 | 1014.1 |
| 20260508130527 | 10 | 355 | 0.0 | 0.0 | 0.00 | 0.05 | 0.03 | 81 | 1014.1 |
| 20260508130056 | 10 | 355 | 0.0 | 0.0 | 0.00 | 0.20 | 0.03 | 79 | 1014.1 |
| 20260508125525 | 9 | 355 | 0.0 | 0.0 | 0.00 | 0.20 | 0.03 | 79 | 1014.1 |
| 20260508125042 | 8 | 355 | 0.0 | 0.0 | 0.00 | 0.20 | 0.03 | 75 | 1014.1 |
| 20260508124510 | 8 | 355 | 0.0 | 0.0 | 0.00 | 0.20 | 0.03 | 75 | 1013.9 |
| 20260508124039 | 8 | 355 | 0.0 | 0.0 | 0.00 | 0.20 | 0.03 | 76 | 1013.9 |
| 20260508123502 | 8 | 355 | 0.0 | 0.0 | 0.00 | 0.20 | 0.03 | 74 | 1013.9 |
| 20260508123030 | 7 | 355 | 0.0 | 0.0 | 0.00 | 0.20 | 0.03 | 73 | 1013.6 |
| 20260508122549 | 7 | 355 | 0.0 | 0.0 | 0.00 | 0.20 | 0.03 | 71 | 1013.6 |
| 20260508122022 | 7 | 355 | 0.0 | 0.0 | 0.00 | 0.20 | 0.03 | 65 | 1013.6 |
| 20260508121600 | 7 | 355 | 0.0 | 0.0 | 0.00 | 0.20 | 0.03 | 63 | 1013.5 |
| 20260508121025 | 7 | 355 | 0.0 | 0.0 | 0.03 | 0.20 | 0.03 | 60 | 1013.5 |
| 20260508120549 | 7 | 355 | 0.0 | 0.0 | 0.03 | 0.20 | 0.03 | 57 | 1013.5 |
| 20260508120022 | 7 | 355 | 0.0 | 0.0 | 0.03 | 0.43 | 0.03 | 55 | 1013.3 |
| 20260508115548 | 7 | 355 | 0.0 | 0.0 | 0.03 | 0.43 | 0.03 | 54 | 1013.3 |
| 20260508115005 | 6 | 355 | 0.0 | 0.0 | 0.03 | 0.43 | 0.03 | 52 | 1013.3 |
| 20260508114536 | 6 | 355 | 0.0 | 0.0 | 0.03 | 0.43 | 0.03 | 52 | 1013.0 |
| 20260508114059 | 6 | 355 | 0.0 | 0.0 | 0.03 | 0.43 | 0.03 | 51 | 1013.0 |
| 20260508113529 | 6 | 355 | 0.0 | 0.0 | 0.03 | 0.43 | 0.03 | 52 | 1013.0 |
| 20260508113057 | 6 | 355 | 0.0 | 0.0 | 0.03 | 0.43 | 0.03 | 52 | 1013.0 |
| 20260508112527 | 6 | 355 | 0.0 | 0.0 | 0.03 | 0.43 | 0.03 | 53 | 1012.8 |
| 20260508112053 | 6 | 355 | 0.0 | 0.0 | 0.03 | 0.43 | 0.03 | 53 | 1012.8 |
| 20260508111517 | 6 | 355 | 0.0 | 0.0 | 0.00 | 0.41 | 0.00 | 54 | 1012.5 |
| 20260508111055 | 6 | 351 | 0.0 | 0.0 | 0.00 | 0.41 | 0.00 | 54 | 1012.5 |
| 20260508110514 | 6 | 351 | 0.0 | 0.0 | 0.00 | 0.41 | 0.00 | 55 | 1012.5 |
| 20260508110051 | 6 | 351 | 0.0 | 0.0 | 0.00 | 0.64 | 0.00 | 55 | 1012.4 |
| 20260508105509 | 6 | 351 | 0.0 | 0.0 | 0.00 | 0.64 | 0.00 | 56 | 1012.4 |
| 20260508105033 | 6 | 351 | 0.0 | 0.0 | 0.00 | 0.64 | 0.00 | 56 | 1012.4 |
| 20260508104557 | 6 | 351 | 0.0 | 0.0 | 0.00 | 0.64 | 0.00 | 56 | 1012.4 |
| 20260508104017 | 6 | 351 | 0.0 | 0.0 | 0.00 | 0.64 | 0.00 | 56 | 1012.2 |
| 20260508103545 | 6 | 351 | 0.0 | 0.0 | 0.00 | 0.64 | 0.00 | 55 | 1012.2 |
| 20260508103016 | 6 | 351 | 0.0 | 0.0 | 0.00 | 0.64 | 0.00 | 55 | 1011.9 |
| 20260508102537 | 6 | 351 | 0.0 | 0.0 | 0.00 | 0.64 | 0.00 | 55 | 1011.9 |
| 20260508102059 | 6 | 351 | 0.0 | 0.0 | 0.00 | 0.64 | 0.00 | 55 | 1011.9 |
| 20260508101528 | 6 | 351 | 0.0 | 0.0 | 0.00 | 0.64 | 0.00 | 56 | 1011.6 |
| 20260508101051 | 6 | 351 | 0.0 | 0.0 | 0.00 | 0.64 | 0.00 | 57 | 1011.6 |
| 20260508100518 | 6 | 351 | 0.0 | 0.0 | 0.00 | 0.64 | 0.00 | 57 | 1011.6 |
| 20260508100050 | 6 | 351 | 0.0 | 0.0 | 0.00 | 0.69 | 0.00 | 56 | 1011.4 |
| 20260508095531 | 6 | 351 | 0.0 | 0.0 | 0.00 | 0.69 | 0.00 | 56 | 1011.4 |
| 20260508095055 | 6 | 351 | 0.0 | 0.0 | 0.00 | 0.69 | 0.00 | 57 | 1011.4 |
| 20260508094519 | 6 | 351 | 0.0 | 0.0 | 0.00 | 0.69 | 0.00 | 56 | 1011.2 |
| 20260508094049 | 6 | 351 | 0.0 | 0.0 | 0.00 | 0.69 | 0.00 | 56 | 1011.2 |
| 20260508093511 | 6 | 351 | 0.0 | 0.0 | 0.00 | 0.69 | 0.00 | 57 | 1011.2 |
| 20260508093037 | 7 | 351 | 0.0 | 0.0 | 0.00 | 0.69 | 0.00 | 57 | 1011.3 |
| 20260508092505 | 7 | 351 | 0.0 | 0.0 | 0.00 | 0.69 | 0.00 | 57 | 1011.3 |
| 20260508092034 | 7 | 351 | 0.0 | 0.0 | 0.00 | 0.69 | 0.00 | 57 | 1011.3 |
| 20260508091604 | 7 | 351 | 0.0 | 0.0 | 0.00 | 0.69 | 0.00 | 57 | 1011.3 |
| 20260508091029 | 7 | 351 | 0.0 | 0.0 | 0.00 | 0.69 | 0.00 | 56 | 1011.2 |
| 20260508090557 | 7 | 351 | 0.0 | 0.0 | 0.00 | 0.69 | 0.00 | 56 | 1011.2 |
| 20260508090033 | 7 | 351 | 0.0 | 0.0 | 0.00 | 0.69 | 0.00 | 56 | 1011.0 |
| 20260508085500 | 7 | 351 | 0.0 | 0.0 | 0.00 | 0.69 | 0.00 | 55 | 1011.0 |
| 20260508085031 | 7 | 351 | 0.0 | 0.0 | 0.00 | 0.69 | 0.00 | 55 | 1011.0 |
| 20260508084503 | 7 | 351 | 0.0 | 0.0 | 0.00 | 0.69 | 0.00 | 55 | 1011.0 |
| 20260508084035 | 7 | 351 | 0.0 | 0.0 | 0.00 | 0.69 | 0.00 | 54 | 1011.0 |
| 20260508083559 | 7 | 351 | 0.0 | 0.0 | 0.00 | 0.69 | 0.00 | 53 | 1011.0 |
| 20260508083112 | 7 | 351 | 0.0 | 0.0 | 0.00 | 0.69 | 0.00 | 52 | 1010.8 |
| 20260508082557 | 7 | 351 | 0.0 | 0.0 | 0.00 | 0.69 | 0.00 | 52 | 1010.8 |
| 20260508082029 | 7 | 351 | 0.0 | 0.0 | 0.00 | 0.69 | 0.00 | 52 | 1010.8 |
| 20260508081556 | 7 | 351 | 0.0 | 0.0 | 0.00 | 0.69 | 0.00 | 53 | 1010.8 |
| 20260508081016 | 7 | 351 | 0.0 | 0.0 | 0.00 | 0.69 | 0.00 | 52 | 1010.8 |
| 20260508080543 | 7 | 351 | 0.0 | 0.0 | 0.00 | 0.69 | 0.00 | 53 | 1010.8 |
| 20260508080100 | 7 | 351 | 0.0 | 0.0 | 0.00 | 0.71 | 0.00 | 53 | 1010.8 |
| 20260508075532 | 7 | 351 | 0.0 | 0.0 | 0.00 | 0.71 | 0.00 | 55 | 1010.8 |
| 20260508075056 | 7 | 351 | 0.0 | 0.0 | 0.00 | 0.71 | 0.00 | 55 | 1010.8 |
| 20260508074531 | 7 | 351 | 0.0 | 0.0 | 0.00 | 0.71 | 0.00 | 55 | 1010.8 |
| 20260508074050 | 7 | 351 | 0.0 | 0.0 | 0.00 | 0.71 | 0.00 | 54 | 1010.8 |
| 20260508073524 | 7 | 351 | 0.0 | 0.0 | 0.00 | 0.71 | 0.00 | 54 | 1010.8 |
| 20260508073058 | 7 | 351 | 0.0 | 0.0 | 0.00 | 0.71 | 0.00 | 54 | 1010.8 |
| 20260508072520 | 7 | 351 | 0.0 | 0.0 | 0.00 | 0.71 | 0.00 | 54 | 1010.6 |
| 20260508072052 | 7 | 351 | 0.0 | 0.0 | 0.00 | 0.71 | 0.00 | 55 | 1010.6 |
| 20260508071528 | 7 | 351 | 0.0 | 0.0 | 0.00 | 0.71 | 0.00 | 56 | 1010.5 |
| 20260508071052 | 7 | 351 | 0.0 | 0.0 | 0.00 | 0.71 | 0.00 | 56 | 1010.5 |
| 20260508070534 | 7 | 351 | 0.0 | 0.0 | 0.00 | 0.71 | 0.00 | 57 | 1010.5 |
| 20260508070058 | 7 | 351 | 0.0 | 0.0 | 0.00 | 0.76 | 0.00 | 57 | 1010.5 |
| 20260508065525 | 7 | 351 | 0.0 | 0.0 | 0.00 | 0.76 | 0.00 | 56 | 1010.2 |
| 20260508065056 | 7 | 351 | 0.0 | 0.0 | 0.00 | 0.76 | 0.00 | 56 | 1010.2 |
| 20260508064541 | 7 | 351 | 0.0 | 0.0 | 0.00 | 0.76 | 0.00 | 57 | 1010.1 |
| 20260508064052 | 7 | 351 | 0.0 | 0.0 | 0.00 | 0.76 | 0.00 | 58 | 1010.1 |
| 20260508063518 | 7 | 351 | 0.0 | 0.0 | 0.00 | 0.76 | 0.00 | 59 | 1010.1 |
| 20260508063047 | 7 | 351 | 0.0 | 0.0 | 0.00 | 0.76 | 0.00 | 60 | 1010.1 |
| 20260508062510 | 7 | 351 | 0.0 | 0.0 | 0.00 | 0.76 | 0.00 | 60 | 1010.1 |
| 20260508062036 | 7 | 351 | 0.0 | 0.0 | 0.00 | 0.76 | 0.00 | 60 | 1010.1 |
| 20260508061503 | 7 | 351 | 0.0 | 0.0 | 0.00 | 0.76 | 0.00 | 60 | 1010.1 |
| 20260508061033 | 7 | 351 | 0.0 | 0.0 | 0.00 | 0.76 | 0.00 | 61 | 1010.1 |
| 20260508060600 | 7 | 351 | 0.0 | 0.0 | 0.00 | 0.76 | 0.00 | 61 | 1010.1 |
| 20260508060016 | 7 | 351 | 0.0 | 0.0 | 0.00 | 0.94 | 0.00 | 62 | 1010.2 |
| 20260508055542 | 7 | 351 | 0.0 | 0.0 | 0.00 | 0.94 | 0.00 | 63 | 1010.2 |
| 20260508055012 | 7 | 351 | 0.0 | 0.0 | 0.00 | 0.94 | 0.00 | 64 | 1010.2 |
| 20260508054546 | 7 | 351 | 0.0 | 0.0 | 0.00 | 0.94 | 0.00 | 64 | 1010.2 |
| 20260508054014 | 7 | 351 | 0.0 | 0.0 | 0.00 | 0.94 | 0.00 | 65 | 1010.2 |
| 20260508053542 | 7 | 351 | 0.0 | 0.0 | 0.00 | 0.94 | 0.00 | 65 | 1010.2 |
| 20260508053018 | 7 | 351 | 0.0 | 0.0 | 0.00 | 0.94 | 0.00 | 65 | 1010.3 |
| 20260508052540 | 7 | 351 | 0.0 | 0.0 | 0.00 | 0.94 | 0.00 | 66 | 1010.3 |
| 20260508052003 | 7 | 351 | 0.0 | 0.0 | 0.00 | 0.94 | 0.00 | 66 | 1010.3 |
| 20260508051534 | 7 | 351 | 0.0 | 0.0 | 0.00 | 0.94 | 0.00 | 67 | 1010.1 |
| 20260508051003 | 7 | 351 | 0.0 | 0.0 | 0.00 | 0.94 | 0.00 | 68 | 1010.1 |
| 20260508050535 | 7 | 351 | 0.0 | 0.0 | 0.00 | 0.94 | 0.00 | 68 | 1010.1 |
| 20260508045533 | 7 | 351 | 0.0 | 0.0 | 0.00 | 1.14 | 0.00 | 70 | 1010.0 |
| 20260508045056 | 8 | 351 | 0.0 | 0.0 | 0.00 | 1.14 | 0.00 | 70 | 1010.0 |
| 20260508044524 | 8 | 351 | 0.0 | 0.0 | 0.00 | 1.14 | 0.00 | 71 | 1009.9 |
| 20260508044043 | 8 | 351 | 0.0 | 0.0 | 0.00 | 1.14 | 0.00 | 71 | 1009.9 |
| 20260508043519 | 8 | 351 | 0.0 | 0.0 | 0.00 | 1.14 | 0.00 | 72 | 1009.9 |
| 20260508043046 | 8 | 351 | 0.0 | 0.0 | 0.00 | 1.14 | 0.00 | 73 | 1009.9 |
| 20260508042515 | 8 | 351 | 0.0 | 0.0 | 0.00 | 1.14 | 0.00 | 73 | 1009.9 |
| 20260508042051 | 8 | 351 | 0.0 | 0.0 | 0.00 | 1.14 | 0.00 | 74 | 1009.9 |
| 20260508041522 | 8 | 351 | 0.0 | 0.0 | 0.00 | 1.14 | 0.00 | 73 | 1009.8 |
| 20260508041047 | 8 | 351 | 0.0 | 0.0 | 0.00 | 1.14 | 0.00 | 75 | 1009.8 |
| 20260508040510 | 8 | 351 | 0.0 | 0.0 | 0.00 | 1.14 | 0.00 | 74 | 1009.8 |
| 20260508040043 | 8 | 351 | 0.0 | 0.0 | 0.00 | 1.14 | 1.14 | 72 | 1009.8 |
| 20260508035511 | 8 | 351 | 0.0 | 0.0 | 0.00 | 1.14 | 1.14 | 70 | 1009.8 |
| 20260508035035 | 8 | 351 | 0.0 | 0.0 | 0.00 | 1.14 | 1.14 | 69 | 1009.8 |
| 20260508034504 | 8 | 351 | 0.0 | 0.0 | 0.00 | 1.14 | 1.14 | 70 | 1009.8 |
| 20260508034033 | 8 | 351 | 0.0 | 0.0 | 0.00 | 1.14 | 1.14 | 70 | 1009.8 |
| 20260508033602 | 8 | 351 | 0.0 | 0.0 | 0.00 | 1.14 | 1.14 | 70 | 1009.8 |
| 20260508033023 | 8 | 351 | 0.0 | 0.0 | 0.00 | 1.14 | 1.14 | 68 | 1010.0 |
| 20260508032551 | 8 | 351 | 0.0 | 0.0 | 0.00 | 1.14 | 1.14 | 68 | 1010.0 |
| 20260508032019 | 8 | 351 | 0.0 | 0.0 | 0.00 | 1.14 | 1.14 | 67 | 1010.0 |
| 20260508031545 | 8 | 351 | 0.0 | 0.0 | 0.00 | 1.14 | 1.14 | 67 | 1009.8 |
| 20260508031009 | 8 | 351 | 0.0 | 0.0 | 0.00 | 1.14 | 1.14 | 65 | 1009.8 |
| 20260508030541 | 8 | 351 | 0.0 | 0.0 | 0.00 | 1.14 | 1.14 | 66 | 1009.8 |
| 20260508030011 | 8 | 351 | 0.0 | 0.0 | 0.00 | 1.24 | 1.14 | 67 | 1009.7 |
| 20260508025530 | 8 | 351 | 0.0 | 0.0 | 0.00 | 1.24 | 1.14 | 67 | 1009.7 |
| 20260508025057 | 8 | 351 | 0.0 | 0.0 | 0.00 | 1.24 | 1.14 | 68 | 1009.7 |
| 20260508024531 | 8 | 351 | 0.0 | 0.0 | 0.00 | 1.24 | 1.14 | 68 | 1009.2 |
| 20260508024053 | 8 | 351 | 0.0 | 0.0 | 0.00 | 1.24 | 1.14 | 68 | 1009.2 |
| 20260508023530 | 8 | 351 | 0.0 | 0.0 | 0.00 | 1.24 | 1.14 | 68 | 1009.2 |
| 20260508023053 | 9 | 351 | 0.0 | 0.0 | 0.00 | 1.24 | 1.14 | 69 | 1009.1 |
| 20260508022519 | 9 | 351 | 0.0 | 0.0 | 0.00 | 1.24 | 1.14 | 69 | 1009.1 |
| 20260508022049 | 9 | 351 | 0.0 | 0.0 | 0.00 | 1.24 | 1.14 | 69 | 1009.1 |
| 20260508021517 | 9 | 351 | 0.0 | 0.0 | 0.00 | 1.24 | 1.14 | 71 | 1009.0 |
| 20260508021042 | 9 | 351 | 0.0 | 0.0 | 0.00 | 1.24 | 1.14 | 71 | 1009.0 |
| 20260508020503 | 9 | 351 | 0.0 | 0.0 | 0.00 | 1.24 | 1.14 | 72 | 1009.0 |
| 20260508020032 | 9 | 351 | 0.0 | 0.0 | 0.00 | 1.40 | 1.14 | 74 | 1008.8 |
| 20260508015558 | 9 | 351 | 0.0 | 0.0 | 0.00 | 1.40 | 1.14 | 75 | 1008.8 |
| 20260508015500 | 9 | 351 | 0.0 | 0.0 | 0.00 | 1.40 | 1.14 | 75 | 1008.8 |
| 20260508015035 | 9 | 351 | 0.0 | 0.0 | 0.00 | 1.40 | 1.14 | 76 | 1008.8 |
| 20260508014559 | 9 | 351 | 0.0 | 0.0 | 0.00 | 1.40 | 1.14 | 77 | 1008.8 |
| 20260508014031 | 9 | 351 | 0.0 | 0.0 | 0.00 | 1.40 | 1.14 | 78 | 1008.4 |
| 20260508013554 | 10 | 351 | 0.0 | 0.0 | 0.00 | 1.40 | 1.14 | 79 | 1008.4 |
| 20260508013018 | 10 | 351 | 0.0 | 0.0 | 0.00 | 1.40 | 1.14 | 79 | 1008.3 |
| 20260508012552 | 10 | 351 | 0.0 | 0.0 | 0.00 | 1.40 | 1.14 | 80 | 1008.3 |